軌道要素
Epoch 2024 Oct. 17.0 TT = JDT 2460600.5
T 2024 Apr. 28.92816 TT Rudenko
q 1.8815394 (2000.0) P Q
n 0.00530682 Peri. 295.58211 -0.34098667 +0.39059890
a 32.5521742 Node 78.16652 +0.78377192 +0.62036335
e 0.9421993 Incl. 119.11484 -0.51906614 +0.68013367
P 186
From 361 observations 2024 Jan. 15-Nov. 12, mean residual 0".3.
|